EW5638 Weather Reports


time (UTC)temp
F
wind
direction
speed
knots
gust
knots
rain 1hr
in
rain 24hr
in
rain mn
in
humidity
%
barometer
mb
20260507094552 40 256 0.9 5.2 0.00 0.69 0.01 100 1005.8
20260507093048 40 258 1.7 4.3 0.00 0.69 0.01 100 1005.6
20260507091544 40 263 1.7 6.1 0.00 0.69 0.01 100 1005.8
20260507090042 40 259 3.5 6.1 0.00 0.69 0.01 100 1005.8
20260507084534 40 254 1.7 4.3 0.00 0.69 0.01 100 1005.8
20260507083031 40 254 0.9 3.5 0.00 0.69 0.01 100 1005.7
20260507081534 40 253 0.0 3.5 0.00 0.69 0.01 100 1005.8
20260507080023 40 253 0.0 2.6 0.00 0.69 0.01 100 1005.9
20260507074520 40 253 0.9 4.3 0.00 0.69 0.01 100 1005.9
20260507073015 40 253 0.9 2.6 0.00 0.69 0.01 100 1005.9
20260507071511 39 253 0.0 2.6 0.00 0.69 0.01 100 1005.9
20260507070010 40 253 0.0 2.6 0.01 0.69 0.01 100 1005.9
20260507064502 40 253 0.0 3.5 0.01 0.69 0.01 100 1006.0
20260507063058 40 253 0.0 3.5 0.01 0.69 0.01 100 1006.1
20260507061554 40 253 0.0 4.3 0.01 0.69 0.01 100 1006.2
20260507060051 40 252 0.9 4.3 0.00 0.68 0.00 100 1006.5
20260507054546 40 252 0.9 6.1 0.00 0.68 0.00 100 1006.7
20260507053041 40 250 1.7 5.2 0.00 0.68 0.00 100 1006.8
20260507051537 40 252 0.0 3.5 0.00 0.68 0.00 100 1006.9
20260507050038 40 250 0.9 5.2 0.00 0.68 0.00 100 1007.0
20260507044528 40 255 0.9 4.3 0.00 0.68 0.00 100 1007.0
20260507043023 40 255 0.9 7.0 0.00 0.68 0.00 100 1007.0
20260507041535 40 268 0.9 3.5 0.00 0.68 0.00 100 1007.0
20260507040014 41 268 0.9 6.1 0.00 0.68 0.00 100 1007.2
20260507034513 41 269 0.9 4.3 0.00 0.73 0.68 100 1007.2
20260507033009 41 270 0.0 3.5 0.00 0.73 0.68 100 1007.3
20260507031502 41 269 1.7 4.3 0.00 0.73 0.68 100 1007.3
20260507024553 41 270 0.0 3.5 0.00 0.77 0.68 100 1007.2
20260507023103 41 270 0.9 4.3 0.00 0.77 0.68 100 1007.4
20260507021550 41 270 0.0 2.6 0.00 0.77 0.68 100 1007.4
20260507020040 41 270 0.9 2.6 0.00 0.77 0.68 100 1007.3
20260507014549 41 270 0.0 3.5 0.00 0.79 0.68 100 1007.5
20260507013042 41 270 0.0 2.6 0.00 0.79 0.68 100 1007.6
20260507011535 41 270 0.0 2.6 0.00 0.79 0.68 100 1007.3
20260507010021 41 270 0.0 1.7 0.00 0.79 0.68 100 1007.5
20260507004520 41 270 0.0 0.0 0.00 0.80 0.68 100 1007.6
20260507003013 42 270 0.0 1.7 0.01 0.80 0.68 100 1007.6
20260507001509 42 270 0.0 2.6 0.01 0.80 0.68 100 1007.4
20260507000014 42 270 0.0 3.5 0.01 0.80 0.68 100 1007.4
20260506234559 42 270 1.7 3.5 0.02 0.80 0.68 100 1007.5
20260506233102 42 270 0.0 1.7 0.02 0.80 0.67 100 1007.3
20260506231551 42 270 0.0 2.6 0.02 0.80 0.67 100 1007.2
20260506230046 42 270 0.0 4.3 0.03 0.80 0.67 100 1007.2
20260506224542 42 270 0.0 2.6 0.02 0.80 0.65 100 1007.5
20260506223045 42 270 0.9 3.5 0.03 0.80 0.65 100 1007.5
20260506221533 42 270 0.9 3.5 0.02 0.79 0.65 100 1007.3
20260506220029 42 270 0.0 1.7 0.01 0.77 0.63 100 1007.5
20260506214625 42 270 0.9 3.5 0.01 0.77 0.63 100 1007.5
20260506213021 42 270 0.0 2.6 0.00 0.76 0.62 100 1007.4
20260506211516 42 270 0.0 3.5 0.00 0.76 0.62 100 1007.3
20260506210014 42 269 1.7 3.5 0.00 0.76 0.62 100 1007.5
20260506204507 42 268 0.0 3.5 0.00 0.76 0.62 100 1007.3
20260506203004 42 266 0.9 3.5 0.01 0.76 0.62 100 1007.4
20260506201504 42 266 0.9 3.5 0.02 0.76 0.62 100 1007.5
20260506200004 42 266 0.0 1.7 0.02 0.76 0.62 100 1007.5
20260506194614 42 266 0.0 2.6 0.03 0.76 0.62 100 1007.5
20260506193055 42 266 0.9 2.6 0.03 0.76 0.61 100 1007.6
20260506191551 42 266 0.0 0.0 0.04 0.75 0.61 100 1008.0
20260506190046 41 266 0.0 0.9 0.05 0.74 0.60 100 1008.1
20260506184546 41 266 0.0 2.6 0.06 0.92 0.59 100 1008.1
20260506183038 41 263 0.0 3.5 0.06 0.91 0.57 100 1008.1
20260506181537 42 263 0.0 2.6 0.07 0.90 0.56 100 1008.3
20260506180037 42 263 0.0 1.7 0.08 0.88 0.55 100 1008.4
20260506174527 42 263 0.0 0.9 0.09 0.89 0.54 100 1008.5
20260506173020 42 263 0.0 0.9 0.10 0.87 0.52 100 1008.5
20260506171534 42 263 0.0 0.0 0.10 0.85 0.50 100 1008.6
20260506170013 42 263 0.0 0.0 0.11 0.83 0.47 100 1008.8
20260506164507 41 263 0.0 1.7 0.10 0.80 0.44 100 1009.1
20260506163007 41 263 0.0 2.6 0.11 0.77 0.42 100 1009.3
20260506161600 41 263 0.0 2.6 0.11 0.75 0.39 100 1009.5
20260506160105 41 263 2.6 4.3 0.10 0.72 0.36 100 1009.6
20260506154550 41 263 0.9 3.5 0.11 0.70 0.34 100 1009.3
20260506153046 42 257 1.7 5.2 0.12 0.67 0.31 100 1009.6
20260506151541 42 259 0.0 4.3 0.13 0.65 0.28 100 1009.8
20260506150037 42 261 0.9 3.5 0.12 0.62 0.26 100 1009.9
20260506144532 42 261 0.9 2.6 0.10 0.65 0.22 100 1010.0
20260506143028 42 261 1.7 5.2 0.09 0.62 0.19 100 1009.6
20260506141524 42 264 1.7 6.1 0.07 0.59 0.16 100 1009.6
20260506140020 42 247 1.7 6.1 0.06 0.56 0.13 100 1009.6
20260506134527 43 253 2.6 6.1 0.06 0.55 0.12 100 1009.6
20260506133012 43 250 1.7 4.3 0.06 0.53 0.09 100 1009.7
20260506131508 43 247 2.6 7.0 0.06 0.52 0.09 100 1009.4
20260506130002 43 232 2.6 7.0 0.07 0.51 0.08 100 1009.4
20260506124558 44 255 2.6 8.7 0.06 0.50 0.06 100 1009.5
20260506123053 44 269 1.7 7.8 0.04 0.47 0.04 100 1009.5
20260506121549 45 242 4.3 9.6 0.02 0.46 0.02 100 1009.6
20260506120044 46 241 4.3 9.6 0.01 0.44 0.01 100 1009.5
20260506114547 47 246 1.7 5.2 0.00 0.43 0.00 100 1009.3
20260506113039 47 205 0.9 5.2 0.00 0.43 0.00 100 1009.1
20260506111532 47 195 0.0 6.1 0.00 0.43 0.00 100 1009.0
20260506110029 47 190 0.9 7.8 0.00 0.43 0.00 100 1008.6
20260506104524 47 208 2.6 7.0 0.00 0.43 0.00 100 1008.4
20260506103025 47 194 1.7 5.2 0.00 0.43 0.00 100 1008.2
20260506101516 47 200 3.5 7.0 0.00 0.43 0.00 100 1008.5
20260506100013 47 223 3.5 8.7 0.00 0.43 0.00 100 1008.1